Home > Weather > Pinneberg > Past weeks

Flag for Germany Weather for the Past 2 Weeks in Pinneberg, Schleswig-Holstein, Germany

Now
54 °F

Broken clouds.


Feels Like: 49 °F
Forecast: 41 / 58 °F
Wind: 16 mph from Northwest

Location: Hamburg-Fuhlsbuettel

Current Time: May 3, 2016 at 3:08:57 PM

Latest Report: May 3, 2016 at 2:20 PM


Visibility: N/A

Pressure: 30.12 "Hg

Humidity: 72%

Dew Point: 45 °F

Location of PinnebergLocation

Historic Weather in Pinneberg — Graph

°F

Pinneberg Temperature Yesterday

Maximum temperature yesterday: 68 °F (at 5:50 PM)
Minimum temperature yesterday: 36 °F (at 4:20 AM)
Average temperature yesterday: 55 °F

High & Low Weather Summary for the Past Weeks

 TemperatureHumidityPressure
High68 °F (May 2, 5:50 PM)100% (Apr 21, 4:20 AM)30.42 "Hg (Apr 21, 4:20 AM)
Low32 °F (Apr 21, 4:20 AM)30% (May 2, 5:50 PM)29.39 "Hg (Apr 26, 3:20 AM)
Average44 °F77%29.97 "Hg
* Reported Apr 18 1:20 PM — May 3 1:20 PM, Pinneberg, Weather by CustomWeather, © 2016

Note: Actual official high and low records may vary slightly from our data, if they occured in-between our weather recording intervals... More about our weather records

Advertising

Pinneberg Weather History for the Previous 24 Hours

Scroll right to see more
 ConditionsComfort  
Time TempWeatherWind HumidityBarometerVisibility
1:20 PM
Tue, May 3
52 °FBroken clouds.7 mph82%30.09 "HgN/A
12:50 PM50 °FBroken clouds.8 mph88%30.09 "HgN/A
12:20 PM48 °FLight rain. Broken clouds.12 mph87%30.09 "HgN/A
11:50 AM48 °FLight rain. Partly sunny.15 mph87%30.09 "HgN/A
11:20 AM50 °FLight rain. Partly sunny.12 mph88%30.07 "HgN/A
10:50 AM50 °FLight rain. Partly sunny.13 mph88%30.07 "HgN/A
10:20 AM50 °FLight rain. Partly sunny.12 mph88%30.04 "HgN/A
9:50 AM50 °FLight rain. Partly sunny.15 mph82%30.04 "Hg4 mi
9:20 AM54 °FPassing clouds.7 mph77%30.01 "HgN/A
8:50 AM54 °FSunny.6 mph77%30.01 "Hg10 mi
8:20 AM54 °FLight rain. Clear.5 mph72%30.01 "HgN/A
7:20 AM52 °FSunny.3 mph77%30.01 "Hg10 mi
6:50 AM50 °FSunny.5 mph76%30.01 "Hg10 mi
6:20 AM50 °FClear.6 mph76%29.98 "Hg10 mi
5:50 AM50 °FClear.5 mph71%29.98 "Hg10 mi
5:20 AM50 °FClear.5 mph71%29.98 "Hg10 mi
4:20 AM52 °FClear.7 mph67%29.98 "Hg10 mi
3:20 AM52 °FClear.6 mph67%30.01 "Hg10 mi
2:50 AM52 °FClear.7 mph67%30.01 "Hg10 mi
2:20 AM52 °FClear.7 mph62%30.01 "Hg10 mi
1:50 AM54 °FClear.5 mph58%30.04 "Hg10 mi
1:20 AM54 °FClear.5 mph63%30.04 "Hg10 mi
12:50 AM55 °FClear.8 mph59%30.04 "Hg10 mi
12:20 AM57 °FClear.9 mph55%30.04 "Hg10 mi
11:50 PM
Mon, May 2
57 °FClear.8 mph55%30.07 "Hg10 mi
11:20 PM57 °FClear.8 mph55%30.07 "Hg10 mi
10:50 PM57 °FClear.6 mph55%30.07 "Hg10 mi
10:20 PM59 °FClear.6 mph48%30.07 "Hg10 mi
9:50 PM59 °FSunny.7 mph48%30.07 "Hg10 mi
9:20 PM61 °FSunny.9 mph42%30.07 "Hg10 mi
8:50 PM63 °FSunny.8 mph37%30.07 "Hg10 mi
8:20 PM63 °FSunny.8 mph34%30.07 "Hg10 mi
7:50 PM64 °FSunny.10 mph32%30.09 "Hg10 mi
7:20 PM64 °FSunny.9 mph32%30.09 "Hg10 mi
6:50 PM66 °FSunny.12 mph30%30.09 "Hg10 mi
6:20 PM66 °FPassing clouds.10 mph30%30.09 "HgN/A
5:50 PM68 °FPassing clouds.7 mph30%30.12 "HgN/A
5:20 PM66 °FPassing clouds.9 mph35%30.12 "HgN/A
4:50 PM66 °FPassing clouds.9 mph37%30.15 "HgN/A
4:20 PM66 °FPassing clouds.3 mph35%30.15 "HgN/A
3:50 PM66 °FPassing clouds.6 mph35%30.15 "HgN/A
3:20 PM66 °FSunny.5 mph43%30.18 "Hg10 mi
Weather by CustomWeather, © 2016

See weather overviewHow to use our weather pages